Time,TemperatureF,DewpointF,PressureIn,WindDirection,WindDirectionDegrees,WindSpeedMPH,WindSpeedGustMPH,Humidity,HourlyPrecipIn,Conditions,Clouds,dailyrainin,SoftwareType,DateUTC
2013-03-03 00:00:00,28.9,22.0,29.86,North,360,0.0,0.0,75,0.00,,,0.09,Wunderground v.1.15,2013-03-03 05:00:00,
2013-03-03 00:10:00,28.9,21.7,29.85,North,360,0.0,0.0,74,0.00,,,0.00,Wunderground v.1.15,2013-03-03 05:10:00,
2013-03-03 00:15:00,28.8,21.9,29.86,North,360,0.0,0.0,75,0.00,,,0.00,Wunderground v.1.15,2013-03-03 05:15:00,
2013-03-03 00:20:00,28.8,22.2,29.86,North,360,0.0,0.0,76,0.00,,,0.00,Wunderground v.1.15,2013-03-03 05:20:00,
2013-03-03 00:25:00,28.8,21.9,29.86,North,360,0.0,0.0,75,0.00,,,0.00,Wunderground v.1.15,2013-03-03 05:25:00,
2013-03-03 00:30:00,28.8,21.9,29.86,North,360,0.0,0.0,75,0.00,,,0.00,Wunderground v.1.15,2013-03-03 05:30:00,
2013-03-03 00:35:00,28.7,21.8,29.85,North,360,0.0,0.0,75,0.00,,,0.00,Wunderground v.1.15,2013-03-03 05:35:00,
2013-03-03 00:40:00,28.7,21.5,29.85,North,360,0.0,0.0,74,0.00,,,0.00,Wunderground v.1.15,2013-03-03 05:40:00,
2013-03-03 00:50:00,28.7,21.8,29.85,North,360,0.0,0.0,75,0.00,,,0.00,Wunderground v.1.15,2013-03-03 05:50:00,
2013-03-03 01:00:00,28.7,21.5,29.85,North,360,0.0,0.0,74,0.00,,,0.00,Wunderground v.1.15,2013-03-03 06:00:00,
2013-03-03 01:10:00,28.5,21.3,29.85,North,360,0.0,0.0,74,0.00,,,0.00,Wunderground v.1.15,2013-03-03 06:10:00,
2013-03-03 01:15:00,28.5,21.3,29.85,North,360,0.0,0.0,74,0.00,,,0.00,Wunderground v.1.15,2013-03-03 06:15:00,
2013-03-03 01:25:00,28.4,21.2,29.86,North,360,0.0,0.0,74,0.00,,,0.00,Wunderground v.1.15,2013-03-03 06:25:00,
2013-03-03 01:35:00,28.3,20.7,29.85,North,360,0.0,0.0,73,0.00,,,0.00,Wunderground v.1.15,2013-03-03 06:35:00,
2013-03-03 01:40:00,28.2,20.7,29.86,North,360,0.0,0.0,73,0.00,,,0.00,Wunderground v.1.15,2013-03-03 06:40:00,
2013-03-03 01:50:00,28.1,20.6,29.85,North,360,0.0,0.0,73,0.00,,,0.00,Wunderground v.1.15,2013-03-03 06:50:00,
2013-03-03 02:00:00,28.0,20.5,29.85,North,360,0.0,0.0,73,0.00,,,0.00,Wunderground v.1.15,2013-03-03 07:00:00,
2013-03-03 02:10:00,27.9,20.4,29.84,North,360,0.0,0.0,73,0.00,,,0.00,Wunderground v.1.15,2013-03-03 07:10:00,
2013-03-03 02:15:00,27.9,20.4,29.84,North,360,0.0,0.0,73,0.00,,,0.00,Wunderground v.1.15,2013-03-03 07:15:00,
2013-03-03 02:25:00,27.9,20.4,29.84,North,360,0.0,0.0,73,0.00,,,0.00,Wunderground v.1.15,2013-03-03 07:25:00,
2013-03-03 02:35:00,27.8,20.3,29.84,North,360,0.0,0.0,73,0.00,,,0.00,Wunderground v.1.15,2013-03-03 07:35:00,
2013-03-03 02:40:00,27.8,20.3,29.84,North,360,0.0,0.0,73,0.00,,,0.00,Wunderground v.1.15,2013-03-03 07:40:00,
2013-03-03 02:50:00,27.7,20.5,29.84,North,360,0.0,0.0,74,0.00,,,0.00,Wunderground v.1.15,2013-03-03 07:50:00,
2013-03-03 02:55:00,27.7,20.2,29.84,North,360,0.0,0.0,73,0.00,,,0.00,Wunderground v.1.15,2013-03-03 07:55:00,
2013-03-03 03:05:00,27.8,20.3,29.84,North,360,0.0,0.0,73,0.00,,,0.00,Wunderground v.1.15,2013-03-03 08:05:00,
2013-03-03 03:10:00,27.8,20.3,29.84,North,360,0.0,0.0,73,0.00,,,0.00,Wunderground v.1.15,2013-03-03 08:10:00,
2013-03-03 03:20:00,27.8,20.3,29.84,North,360,0.0,0.0,73,0.00,,,0.00,Wunderground v.1.15,2013-03-03 08:20:00,
2013-03-03 03:30:00,27.7,20.2,29.84,North,360,0.0,0.0,73,0.00,,,0.00,Wunderground v.1.15,2013-03-03 08:30:00,
2013-03-03 03:40:00,27.7,20.2,29.84,North,360,0.0,0.0,73,0.00,,,0.00,Wunderground v.1.15,2013-03-03 08:40:00,
2013-03-03 03:45:00,27.6,20.4,29.83,North,360,0.0,0.0,74,0.00,,,0.00,Wunderground v.1.15,2013-03-03 08:45:00,
2013-03-03 03:55:00,27.6,20.4,29.84,North,360,0.0,0.0,74,0.00,,,0.00,Wunderground v.1.15,2013-03-03 08:55:00,
2013-03-03 04:05:00,27.5,20.3,29.83,North,360,0.0,0.0,74,0.00,,,0.00,Wunderground v.1.15,2013-03-03 09:05:00,
2013-03-03 04:15:00,27.4,20.5,29.84,North,360,0.0,0.0,75,0.00,,,0.00,Wunderground v.1.15,2013-03-03 09:15:00,
2013-03-03 04:20:00,27.3,21.0,29.84,North,360,0.0,0.0,77,0.00,,,0.00,Wunderground v.1.15,2013-03-03 09:20:00,
2013-03-03 04:30:00,27.1,21.2,29.84,North,360,0.0,0.0,78,0.00,,,0.00,Wunderground v.1.15,2013-03-03 09:30:00,
2013-03-03 04:40:00,26.8,21.2,29.84,North,360,0.0,0.0,79,0.00,,,0.00,Wunderground v.1.15,2013-03-03 09:40:00,
2013-03-03 04:50:00,26.7,21.4,29.84,North,360,0.0,0.0,80,0.00,,,0.00,Wunderground v.1.15,2013-03-03 09:50:00,
2013-03-03 04:55:00,26.6,21.3,29.84,North,360,0.0,0.0,80,0.00,,,0.00,Wunderground v.1.15,2013-03-03 09:55:00,
2013-03-03 05:05:00,26.4,21.4,29.84,North,360,0.0,0.0,81,0.00,,,0.00,Wunderground v.1.15,2013-03-03 10:05:00,
2013-03-03 05:15:00,26.3,21.6,29.84,North,360,0.0,0.0,82,0.00,,,0.00,Wunderground v.1.15,2013-03-03 10:15:00,
2013-03-03 05:20:00,26.2,21.5,29.84,North,360,0.0,0.0,82,0.00,,,0.00,Wunderground v.1.15,2013-03-03 10:20:00,
2013-03-03 05:25:00,26.2,21.7,29.85,North,360,0.0,0.0,83,0.00,,,0.00,Wunderground v.1.15,2013-03-03 10:25:00,
2013-03-03 05:35:00,26.1,21.6,29.85,North,360,0.0,0.0,83,0.00,,,0.00,Wunderground v.1.15,2013-03-03 10:35:00,
2013-03-03 05:45:00,26.2,21.5,29.85,North,360,0.0,0.0,82,0.00,,,0.00,Wunderground v.1.15,2013-03-03 10:45:00,
2013-03-03 05:50:00,26.2,21.5,29.85,North,360,0.0,0.0,82,0.00,,,0.00,Wunderground v.1.15,2013-03-03 10:50:00,
2013-03-03 06:00:00,26.2,21.5,29.85,North,360,0.0,0.0,82,0.00,,,0.00,Wunderground v.1.15,2013-03-03 11:00:00,
2013-03-03 06:10:00,26.2,21.5,29.85,North,360,0.0,0.0,82,0.00,,,0.00,Wunderground v.1.15,2013-03-03 11:10:00,
2013-03-03 06:20:00,26.2,21.5,29.85,North,360,0.0,0.0,82,0.00,,,0.00,Wunderground v.1.15,2013-03-03 11:20:00,
2013-03-03 06:30:00,26.3,21.6,29.85,North,360,0.0,0.0,82,0.00,,,0.00,Wunderground v.1.15,2013-03-03 11:30:00,
2013-03-03 06:40:00,26.2,21.5,29.85,North,360,0.0,0.0,82,0.00,,,0.00,Wunderground v.1.15,2013-03-03 11:40:00,
2013-03-03 06:45:00,26.2,21.5,29.85,North,360,0.0,0.0,82,0.00,,,0.00,Wunderground v.1.15,2013-03-03 11:45:00,
2013-03-03 06:55:00,26.3,21.6,29.85,North,360,0.0,0.0,82,0.00,,,0.00,Wunderground v.1.15,2013-03-03 11:55:00,
2013-03-03 07:00:00,26.4,21.4,29.85,North,360,0.0,0.0,81,0.00,,,0.00,Wunderground v.1.15,2013-03-03 12:00:00,
2013-03-03 07:10:00,26.7,21.1,29.85,North,360,0.0,0.0,79,0.00,,,0.00,Wunderground v.1.15,2013-03-03 12:10:00,
2013-03-03 07:15:00,26.8,21.2,29.86,North,360,0.0,0.0,79,0.00,,,0.00,Wunderground v.1.15,2013-03-03 12:15:00,
2013-03-03 07:25:00,27.1,21.2,29.86,North,360,0.0,0.0,78,0.00,,,0.00,Wunderground v.1.15,2013-03-03 12:25:00,
2013-03-03 07:30:00,27.1,21.2,29.86,North,360,0.0,0.0,78,0.00,,,0.00,Wunderground v.1.15,2013-03-03 12:30:00,
2013-03-03 07:40:00,27.3,21.3,29.86,North,360,0.0,0.0,78,0.00,,,0.00,Wunderground v.1.15,2013-03-03 12:40:00,
2013-03-03 07:50:00,27.4,21.1,29.85,North,360,0.0,0.0,77,0.00,,,0.00,Wunderground v.1.15,2013-03-03 12:50:00,
2013-03-03 07:55:00,27.5,21.5,29.85,North,360,0.0,0.0,78,0.00,,,0.00,Wunderground v.1.15,2013-03-03 12:55:00,
2013-03-03 08:05:00,27.6,21.6,29.85,North,360,0.0,0.0,78,0.00,,,0.00,Wunderground v.1.15,2013-03-03 13:05:00,
2013-03-03 08:15:00,27.9,21.9,29.86,North,360,0.0,0.0,78,0.00,,,0.00,Wunderground v.1.15,2013-03-03 13:15:00,
2013-03-03 08:20:00,28.0,22.0,29.86,North,360,0.0,0.0,78,0.00,,,0.00,Wunderground v.1.15,2013-03-03 13:20:00,
2013-03-03 08:30:00,28.0,22.0,29.85,North,360,0.0,0.0,78,0.00,,,0.00,Wunderground v.1.15,2013-03-03 13:30:00,
2013-03-03 08:40:00,28.0,22.3,29.85,North,360,0.0,0.0,79,0.00,,,0.00,Wunderground v.1.15,2013-03-03 13:40:00,
2013-03-03 08:50:00,28.1,22.7,29.85,North,360,0.0,0.0,80,0.00,,,0.00,Wunderground v.1.15,2013-03-03 13:50:00,
2013-03-03 08:55:00,28.2,22.8,29.85,North,360,0.0,0.0,80,0.00,,,0.00,Wunderground v.1.15,2013-03-03 13:55:00,
2013-03-03 09:05:00,28.3,23.2,29.84,North,360,0.0,0.0,81,0.00,,,0.00,Wunderground v.1.15,2013-03-03 14:05:00,
2013-03-03 09:10:00,28.6,23.5,29.84,North,360,0.0,0.0,81,0.00,,,0.00,Wunderground v.1.15,2013-03-03 14:10:00,
2013-03-03 09:15:00,28.7,23.6,29.84,North,360,0.0,0.0,81,0.00,,,0.00,Wunderground v.1.15,2013-03-03 14:15:00,
2013-03-03 09:20:00,28.8,23.4,29.84,North,360,0.0,0.0,80,0.00,,,0.00,Wunderground v.1.15,2013-03-03 14:20:00,
2013-03-03 09:30:00,29.1,23.4,29.84,North,360,0.0,0.0,79,0.00,,,0.00,Wunderground v.1.15,2013-03-03 14:30:00,
2013-03-03 09:35:00,29.0,23.3,29.84,North,360,0.0,0.0,79,0.00,,,0.00,Wunderground v.1.15,2013-03-03 14:35:00,
2013-03-03 09:45:00,29.2,23.5,29.83,North,360,0.0,0.0,79,0.00,,,0.00,Wunderground v.1.15,2013-03-03 14:45:00,
2013-03-03 09:50:00,29.3,23.6,29.83,North,360,0.0,0.0,79,0.00,,,0.00,Wunderground v.1.15,2013-03-03 14:50:00,
2013-03-03 09:55:00,29.6,23.9,29.83,North,360,0.0,0.0,79,0.00,,,0.00,Wunderground v.1.15,2013-03-03 14:55:00,
2013-03-03 10:05:00,30.0,24.0,29.83,North,360,0.0,0.0,78,0.00,,,0.00,Wunderground v.1.15,2013-03-03 15:05:00,
2013-03-03 10:10:00,30.2,24.5,29.83,North,360,0.0,0.0,79,0.00,,,0.00,Wunderground v.1.15,2013-03-03 15:10:00,
2013-03-03 10:20:00,30.2,24.2,29.82,North,360,0.0,0.0,78,0.00,,,0.00,Wunderground v.1.15,2013-03-03 15:20:00,
2013-03-03 10:30:00,30.3,24.6,29.82,North,360,0.0,0.0,79,0.00,,,0.00,Wunderground v.1.15,2013-03-03 15:30:00,
2013-03-03 10:40:00,30.9,24.5,29.82,North,360,0.0,0.0,77,0.00,,,0.01,Wunderground v.1.15,2013-03-03 15:40:00,
2013-03-03 10:50:00,30.7,24.0,29.82,North,360,0.0,0.0,76,0.00,,,0.01,Wunderground v.1.15,2013-03-03 15:50:00,
2013-03-03 10:55:00,30.5,23.8,29.82,North,360,0.0,0.0,76,0.00,,,0.01,Wunderground v.1.15,2013-03-03 15:55:00,
2013-03-03 11:00:00,30.5,23.8,29.82,North,360,0.0,0.0,76,0.00,,,0.01,Wunderground v.1.15,2013-03-03 16:00:00,
2013-03-03 11:10:00,31.0,24.0,29.82,North,360,0.0,0.0,75,0.00,,,0.01,Wunderground v.1.15,2013-03-03 16:10:00,
2013-03-03 11:15:00,31.4,24.4,29.81,North,360,0.0,0.0,75,0.00,,,0.01,Wunderground v.1.15,2013-03-03 16:15:00,
2013-03-03 11:20:00,31.6,24.6,29.81,North,360,0.0,0.0,75,0.00,,,0.01,Wunderground v.1.15,2013-03-03 16:20:00,
2013-03-03 11:30:00,32.0,24.3,29.81,North,360,0.0,0.0,73,0.00,,,0.01,Wunderground v.1.15,2013-03-03 16:30:00,
2013-03-03 11:40:00,32.8,24.4,29.81,North,360,0.0,0.0,71,0.00,,,0.01,Wunderground v.1.15,2013-03-03 16:40:00,
2013-03-03 11:50:00,33.2,24.8,29.81,North,360,0.0,0.0,71,0.00,,,0.01,Wunderground v.1.15,2013-03-03 16:50:00,
2013-03-03 12:00:00,33.8,25.0,29.81,North,360,0.0,0.0,70,0.00,,,0.02,Wunderground v.1.15,2013-03-03 17:00:00,
2013-03-03 12:10:00,33.7,25.0,29.80,North,360,0.0,0.0,70,0.00,,,0.02,Wunderground v.1.15,2013-03-03 17:10:00,
2013-03-03 12:15:00,33.5,24.8,29.80,North,360,0.0,0.0,70,0.00,,,0.02,Wunderground v.1.15,2013-03-03 17:15:00,
2013-03-03 12:25:00,33.2,24.5,29.79,North,360,0.0,0.0,70,0.00,,,0.02,Wunderground v.1.15,2013-03-03 17:25:00,
2013-03-03 12:30:00,33.0,25.3,29.79,North,360,0.0,0.0,73,0.00,,,0.02,Wunderground v.1.15,2013-03-03 17:30:00,
2013-03-03 12:40:00,33.5,25.4,29.79,North,360,0.0,0.0,72,0.00,,,0.03,Wunderground v.1.15,2013-03-03 17:40:00,
2013-03-03 12:50:00,33.7,25.0,29.79,North,360,0.0,0.0,70,0.00,,,0.03,Wunderground v.1.15,2013-03-03 17:50:00,
2013-03-03 13:00:00,34.1,25.0,29.78,North,360,0.0,0.0,69,0.00,,,0.03,Wunderground v.1.15,2013-03-03 18:00:00,
2013-03-03 13:05:00,34.2,25.1,29.78,North,360,0.0,0.0,69,0.00,,,0.03,Wunderground v.1.15,2013-03-03 18:05:00,
2013-03-03 13:15:00,33.9,24.8,29.78,North,360,0.0,0.0,69,0.00,,,0.03,Wunderground v.1.15,2013-03-03 18:15:00,
2013-03-03 13:25:00,34.0,24.9,29.78,North,360,0.0,0.0,69,0.00,,,0.03,Wunderground v.1.15,2013-03-03 18:25:00,
2013-03-03 13:35:00,34.0,24.9,29.77,North,360,0.0,0.0,69,0.00,,,0.03,Wunderground v.1.15,2013-03-03 18:35:00,
2013-03-03 13:45:00,34.0,25.2,29.78,North,360,0.0,0.0,70,0.00,,,0.03,Wunderground v.1.15,2013-03-03 18:45:00,
2013-03-03 13:55:00,34.3,25.5,29.78,North,360,0.0,0.0,70,0.00,,,0.03,Wunderground v.1.15,2013-03-03 18:55:00,
2013-03-03 14:00:00,34.4,25.6,29.78,North,360,0.0,0.0,70,0.00,,,0.03,Wunderground v.1.15,2013-03-03 19:00:00,
2013-03-03 14:05:00,34.4,25.6,29.78,North,360,0.0,0.0,70,0.00,,,0.03,Wunderground v.1.15,2013-03-03 19:05:00,
2013-03-03 14:15:00,34.6,25.5,29.78,North,360,0.0,0.0,69,0.00,,,0.04,Wunderground v.1.15,2013-03-03 19:15:00,
2013-03-03 14:20:00,34.5,25.4,29.77,North,360,0.0,0.0,69,0.00,,,0.04,Wunderground v.1.15,2013-03-03 19:20:00,
2013-03-03 14:30:00,34.4,25.3,29.78,North,360,0.0,0.0,69,0.00,,,0.04,Wunderground v.1.15,2013-03-03 19:30:00,
2013-03-03 14:40:00,34.4,25.6,29.78,North,360,0.0,0.0,70,0.00,,,0.04,Wunderground v.1.15,2013-03-03 19:40:00,
2013-03-03 14:50:00,34.4,25.6,29.78,North,360,0.0,0.0,70,0.00,,,0.04,Wunderground v.1.15,2013-03-03 19:50:00,
2013-03-03 15:00:00,34.1,25.3,29.78,North,360,0.0,0.0,70,0.00,,,0.04,Wunderground v.1.15,2013-03-03 20:00:00,
2013-03-03 15:10:00,33.9,25.8,29.78,North,360,0.0,0.0,72,0.00,,,0.04,Wunderground v.1.15,2013-03-03 20:10:00,
2013-03-03 15:15:00,33.8,27.0,29.78,North,360,0.0,0.0,76,0.00,,,0.04,Wunderground v.1.15,2013-03-03 20:15:00,
2013-03-03 15:25:00,33.9,25.8,29.78,North,360,0.0,0.0,72,0.00,,,0.04,Wunderground v.1.15,2013-03-03 20:25:00,
2013-03-03 15:30:00,33.8,26.4,29.78,North,360,0.0,0.0,74,0.00,,,0.04,Wunderground v.1.15,2013-03-03 20:30:00,
2013-03-03 15:40:00,33.8,26.7,29.78,North,360,0.0,0.0,75,0.00,,,0.04,Wunderground v.1.15,2013-03-03 20:40:00,
2013-03-03 15:45:00,33.9,26.8,29.77,North,360,0.0,0.0,75,0.00,,,0.04,Wunderground v.1.15,2013-03-03 20:45:00,
2013-03-03 15:55:00,33.9,26.2,29.77,North,360,0.0,0.0,73,0.00,,,0.04,Wunderground v.1.15,2013-03-03 20:55:00,
2013-03-03 16:05:00,33.5,26.1,29.77,North,360,0.0,0.0,74,0.00,,,0.04,Wunderground v.1.15,2013-03-03 21:05:00,
2013-03-03 16:15:00,33.5,26.1,29.77,North,360,0.0,0.0,74,0.00,,,0.04,Wunderground v.1.15,2013-03-03 21:15:00,
2013-03-03 16:20:00,33.6,26.2,29.77,North,360,0.0,0.0,74,0.00,,,0.04,Wunderground v.1.15,2013-03-03 21:20:00,
2013-03-03 16:25:00,33.6,25.9,29.77,North,360,0.0,0.0,73,0.00,,,0.04,Wunderground v.1.15,2013-03-03 21:25:00,
2013-03-03 16:35:00,33.7,25.6,29.78,North,360,0.0,0.0,72,0.00,,,0.04,Wunderground v.1.15,2013-03-03 21:35:00,
2013-03-03 16:45:00,33.4,26.0,29.77,North,360,0.0,0.0,74,0.00,,,0.04,Wunderground v.1.15,2013-03-03 21:45:00,
2013-03-03 16:55:00,32.9,25.8,29.77,North,360,0.0,0.0,75,0.00,,,0.05,Wunderground v.1.15,2013-03-03 21:55:00,
2013-03-03 17:00:00,32.7,26.0,29.77,North,360,0.0,0.0,76,0.00,,,0.05,Wunderground v.1.15,2013-03-03 22:00:00,
2013-03-03 17:10:00,32.4,26.3,29.77,North,360,0.0,0.0,78,0.00,,,0.05,Wunderground v.1.15,2013-03-03 22:10:00,
2013-03-03 17:15:00,32.3,26.2,29.77,North,360,0.0,0.0,78,0.00,,,0.05,Wunderground v.1.15,2013-03-03 22:15:00,
2013-03-03 17:20:00,32.2,26.1,29.77,North,360,0.0,0.0,78,0.00,,,0.05,Wunderground v.1.15,2013-03-03 22:20:00,
2013-03-03 17:30:00,32.1,25.7,29.78,North,360,0.0,0.0,77,0.00,,,0.05,Wunderground v.1.15,2013-03-03 22:30:00,
2013-03-03 17:35:00,32.1,25.7,29.77,North,360,0.0,0.0,77,0.00,,,0.05,Wunderground v.1.15,2013-03-03 22:35:00,
2013-03-03 17:45:00,32.1,25.4,29.78,North,360,0.0,0.0,76,0.00,,,0.05,Wunderground v.1.15,2013-03-03 22:45:00,
2013-03-03 17:50:00,32.1,25.1,29.78,North,360,0.0,0.0,75,0.00,,,0.05,Wunderground v.1.15,2013-03-03 22:50:00,
2013-03-03 17:55:00,32.1,25.1,29.79,North,360,0.0,0.0,75,0.00,,,0.05,Wunderground v.1.15,2013-03-03 22:55:00,
2013-03-03 18:00:00,32.0,25.3,29.79,North,360,0.0,0.0,76,0.00,,,0.05,Wunderground v.1.15,2013-03-03 23:00:00,
2013-03-03 18:10:00,31.9,25.2,29.80,North,360,0.0,0.0,76,0.00,,,0.05,Wunderground v.1.15,2013-03-03 23:10:00,
2013-03-03 18:20:00,31.8,25.1,29.80,North,360,0.0,0.0,76,0.00,,,0.05,Wunderground v.1.15,2013-03-03 23:20:00,
2013-03-03 18:30:00,31.8,24.8,29.81,North,360,0.0,0.0,75,0.00,,,0.05,Wunderground v.1.15,2013-03-03 23:30:00,
2013-03-03 18:40:00,31.7,24.7,29.81,North,360,0.0,0.0,75,0.00,,,0.05,Wunderground v.1.15,2013-03-03 23:40:00,
2013-03-03 18:50:00,31.7,24.4,29.81,North,360,0.0,0.0,74,0.00,,,0.05,Wunderground v.1.15,2013-03-03 23:50:00,
2013-03-03 19:00:00,31.7,24.0,29.81,North,360,0.0,0.0,73,0.00,,,0.05,Wunderground v.1.15,2013-03-04 00:00:00,
2013-03-03 19:10:00,31.7,24.0,29.82,North,360,0.0,0.0,73,0.00,,,0.05,Wunderground v.1.15,2013-03-04 00:10:00,
2013-03-03 19:20:00,31.7,23.7,29.82,North,360,0.0,0.0,72,0.00,,,0.05,Wunderground v.1.15,2013-03-04 00:20:00,
2013-03-03 19:25:00,31.8,24.1,29.82,North,360,0.0,0.0,73,0.00,,,0.05,Wunderground v.1.15,2013-03-04 00:25:00,
2013-03-03 19:35:00,31.7,24.0,29.81,North,360,0.0,0.0,73,0.00,,,0.05,Wunderground v.1.15,2013-03-04 00:35:00,
2013-03-03 19:45:00,31.7,24.0,29.81,North,360,0.0,0.0,73,0.00,,,0.05,Wunderground v.1.15,2013-03-04 00:45:00,
2013-03-03 19:50:00,31.7,24.4,29.82,North,360,0.0,0.0,74,0.00,,,0.05,Wunderground v.1.15,2013-03-04 00:50:00,
2013-03-03 19:55:00,31.6,23.9,29.82,North,360,0.0,0.0,73,0.00,,,0.05,Wunderground v.1.15,2013-03-04 00:55:00,
2013-03-03 20:05:00,31.6,23.9,29.83,North,360,0.0,0.0,73,0.00,,,0.05,Wunderground v.1.15,2013-03-04 01:05:00,
2013-03-03 20:15:00,31.5,24.5,29.82,North,360,0.0,0.0,75,0.00,,,0.05,Wunderground v.1.15,2013-03-04 01:15:00,
2013-03-03 20:25:00,31.5,23.8,29.83,North,360,0.0,0.0,73,0.00,,,0.05,Wunderground v.1.15,2013-03-04 01:25:00,
2013-03-03 20:35:00,31.4,24.1,29.83,North,360,0.0,0.0,74,0.00,,,0.05,Wunderground v.1.15,2013-03-04 01:35:00,
2013-03-03 20:45:00,31.2,23.9,29.83,North,360,0.0,0.0,74,0.00,,,0.05,Wunderground v.1.15,2013-03-04 01:45:00,
2013-03-03 20:50:00,31.1,24.1,29.83,North,360,0.0,0.0,75,0.00,,,0.05,Wunderground v.1.15,2013-03-04 01:50:00,
2013-03-03 21:00:00,30.8,23.8,29.83,North,360,0.0,0.0,75,0.00,,,0.05,Wunderground v.1.15,2013-03-04 02:00:00,
2013-03-03 21:10:00,30.6,23.6,29.83,North,360,0.0,0.0,75,0.00,,,0.05,Wunderground v.1.15,2013-03-04 02:10:00,
2013-03-03 21:15:00,30.5,23.5,29.83,North,360,0.0,0.0,75,0.00,,,0.05,Wunderground v.1.15,2013-03-04 02:15:00,
2013-03-03 21:25:00,30.2,23.2,29.83,North,360,0.0,0.0,75,0.00,,,0.05,Wunderground v.1.15,2013-03-04 02:25:00,
2013-03-03 21:30:00,30.1,23.4,29.83,North,360,0.0,0.0,76,0.00,,,0.05,Wunderground v.1.15,2013-03-04 02:30:00,
2013-03-03 21:40:00,29.8,22.8,29.84,North,360,0.0,0.0,75,0.00,,,0.05,Wunderground v.1.15,2013-03-04 02:40:00,
2013-03-03 21:45:00,29.7,23.1,29.84,North,360,0.0,0.0,76,0.00,,,0.05,Wunderground v.1.15,2013-03-04 02:45:00,
2013-03-03 21:50:00,29.7,22.7,29.84,North,360,0.0,0.0,75,0.00,,,0.05,Wunderground v.1.15,2013-03-04 02:50:00,
2013-03-03 22:00:00,29.7,22.7,29.84,North,360,0.0,0.0,75,0.00,,,0.05,Wunderground v.1.15,2013-03-04 03:00:00,
2013-03-03 22:10:00,29.6,22.6,29.84,North,360,0.0,0.0,75,0.00,,,0.05,Wunderground v.1.15,2013-03-04 03:10:00,
2013-03-03 22:20:00,29.5,22.6,29.84,North,360,0.0,0.0,75,0.00,,,0.05,Wunderground v.1.15,2013-03-04 03:20:00,
2013-03-03 22:30:00,29.4,22.1,29.83,North,360,0.0,0.0,74,0.00,,,0.05,Wunderground v.1.15,2013-03-04 03:30:00,
2013-03-03 22:40:00,29.1,21.8,29.83,North,360,0.0,0.0,74,0.00,,,0.05,Wunderground v.1.15,2013-03-04 03:40:00,
2013-03-03 22:45:00,28.9,21.7,29.83,North,360,0.0,0.0,74,0.00,,,0.05,Wunderground v.1.15,2013-03-04 03:45:00,
2013-03-03 22:50:00,28.8,21.6,29.84,North,360,0.0,0.0,74,0.00,,,0.05,Wunderground v.1.15,2013-03-04 03:50:00,
2013-03-03 23:00:00,28.4,21.2,29.84,North,360,0.0,0.0,74,0.00,,,0.05,Wunderground v.1.15,2013-03-04 04:00:00,
2013-03-03 23:05:00,28.2,21.0,29.84,North,360,0.0,0.0,74,0.00,,,0.05,Wunderground v.1.15,2013-03-04 04:05:00,
2013-03-03 23:10:00,28.0,20.8,29.84,North,360,0.0,0.0,74,0.00,,,0.05,Wunderground v.1.15,2013-03-04 04:10:00,
2013-03-03 23:20:00,27.7,20.8,29.84,North,360,0.0,0.0,75,0.00,,,0.05,Wunderground v.1.15,2013-03-04 04:20:00,
2013-03-03 23:25:00,27.5,20.3,29.84,North,360,0.0,0.0,74,0.00,,,0.05,Wunderground v.1.15,2013-03-04 04:25:00,
2013-03-03 23:35:00,27.2,20.6,29.84,North,360,0.0,0.0,76,0.00,,,0.05,Wunderground v.1.15,2013-03-04 04:35:00,
2013-03-03 23:40:00,27.1,20.2,29.84,North,360,0.0,0.0,75,0.00,,,0.05,Wunderground v.1.15,2013-03-04 04:40:00,
2013-03-03 23:50:00,26.9,20.3,29.84,North,360,0.0,0.0,76,0.00,,,0.05,Wunderground v.1.15,2013-03-04 04:50:00,